Regional Weather Roundup
Issued by NWS Jackson, KY

Home | Current Version | Previous Version | Text Only | Print | Product List | Glossary Off
Versions: 1 2 3 4 5 6 7 8 9 10 11 12 13 14 15 16 17 18 19 20 21 22 23 24 25 26 27

000
ASUS43 KJKL 240810
RWRJKL

EAST KENTUCKY HOURLY WEATHER ROUNDUP
NATIONAL WEATHER SERVICE JACKSON KY
400 AM EDT THU MAY 24 2018

NOTE: "FAIR" INDICATES FEW OR NO CLOUDS BELOW 12,000 FEET WITH
NO SIGNIFICANT WEATHER AND/OR OBSTRUCTIONS TO VISIBILITY.

* THESE REPORTS ARE NOT UNDER NWS QUALITY CONTROL AND MAY NOT
  REPORT WEATHER SUCH AS PRECIPITATION AND FOG.

KYZ079-080-083-085-087-088-110-112-115-119-120-240900
...EASTERN KENTUCKY...

CITY           SKY/WX    TMP DP  RH WIND       PRES   REMARKS
JACKSON          N/A     61  57  87 CALM      30.15F
LONDON           N/A     64  61  90 N3        30.14S
SOMERSET*        N/A     63  59  88 MISG      30.14S
MONTICELLO*      N/A     66  63  90 W6        30.14S
WILLIAMSBURG*    N/A     63  63 100 CALM      30.13S
MIDDLESBORO*     N/A     61  61 100 CALM      30.14S
HARLAN APT*      N/A     62  61  98 CALM      30.15S
PIKE CO APT*     N/A     60  60 100 CALM      30.16S
BIG SANDY APT*   N/A     57  57 100 CALM      30.17S FOG
MOREHEAD APT*    N/A     61  55  82 CALM      30.18S
ASHLAND*       LGT RAIN  55  54  94 CALM      30.17F VSB 1/2
$$

KYZ035-036-041-042-044-050-067-078-099-240900
...CENTRAL KENTUCKY...

CITY           SKY/WX    TMP DP  RH WIND       PRES   REMARKS
MT STERLING*     N/A     61  55  82 E3        30.18S
FLEMING/MASON*   N/A     59  58  96 CALM      30.18F
DANVILLE*        N/A     61  57  88 CALM      30.16S
LEXINGTON        N/A     65  56  72 E8        30.16S
FRANKFORT        N/A     64  56  75 NE5       30.15S
LOUISVILLE       N/A     68  58  70 E7        30.14S
LEBANON*         N/A     63  59  88 NE5       30.14S
GLASGOW*         N/A     66  60  81 NE6       30.11F
BOWLING GREEN    N/A     67  64  90 CALM      30.10F
$$

KYZ091>093-OHZ055-061-077-WVZ005-015-034-035-042-240900
...SOUTHERN OHIO/WEST VIRGINIA...

CITY           SKY/WX    TMP DP  RH WIND       PRES   REMARKS
COVINGTON        N/A     63  56  78 E5        30.17S
COLUMBUS         N/A     58  51  78 CALM      30.18F
DAYTON           N/A     59  52  77 E5        30.20F
WILMINGTON       N/A     56  56 100 NE8       30.19S
HUNTINGTON       N/A     57  54  89 CALM      30.16F
CHARLESTON       N/A     55  55 100 CALM      30.16F
PINEVILLE*     CLOUDY    56  55  97 MISG      30.23S FOG
BECKLEY          N/A     55  52  89 CALM      30.21S
BLUEFIELD        N/A     56  56 100 CALM      30.21S FOG
LOGAN CO APT*    N/A     59  57  94 CALM      30.17S
$$

VAZ002-007-008-TNZ017-027-036-066-071-240900
...SOUTHWEST VIRGINIA/EAST TENNESSEE...

CITY           SKY/WX    TMP DP  RH WIND       PRES   REMARKS
WISE*            N/A     61  61 100 CALM      30.21S
JONESVILLE*      N/A     61  61 100 CALM      30.16R
ABINGDON*      MOCLDY    66  62  86 SE3       30.16S
BRISTOL        CLOUDY    64  64 100 CALM      30.13S
MORRISTOWN*    MOSUNNY   68  63  83 NE3       30.10S
SEVIERVILLE*   SUNNY     66  64  94 CALM      30.09S
KNOXVILLE        N/A     70  64  81 N8        30.08R
LAFOLLETTE*    MOSUNNY   63  63 100 CALM      30.15S
OAK RIDGE        N/A     68  66  93 CALM      30.10S
CROSSVILLE       N/A     64  61  90 CALM      30.14S
NASHVILLE      MOCLDY    68  65  90 CALM      30.08F
$$

...KEY TO REMARKS...
VSB - VISIBILITY IN MILES
WCI - WIND CHILL INDEX
HX  - HEAT INDEX

$$




USA.gov is the U.S. government's official web portal to all federal, state and local government web resources and services.